owner,sensor,date,latitude,longitude,vertical_datum,wind_speed,wind_to_direction,wind_speed_of_gust,qcFlag 
TCOON,ioos:station:TCOON:031:1,2008-05-01T00:00:00Z,28.4073,-96.7122,0.0,7.2,236.0,9.9,'11111222,11111222,11111222' 
TCOON,ioos:station:TCOON:031:1,2008-05-01T01:00:00Z,28.4073,-96.7122,0.0,5.3,127.0,7.1,'11111222,11111222,11111222' 
TCOON,ioos:station:TCOON:031:1,2008-05-01T05:00:00Z,28.4073,-96.7122,0.0,6.9,226.0,8.0,'11111222,11111222,11111222' 
TCOON,ioos:station:TCOON:031:1,2008-05-01T06:00:00Z,28.4073,-96.7122,0.0,6.8,209.0,9.3,'11111222,11111222,11111222' 
TCOON,ioos:station:TCOON:031:1,2008-05-01T07:00:00Z,28.4073,-96.7122,0.0,7.5,231.0,7.9,'11111222,11111222,11111222' 
TCOON,ioos:station:TCOON:031:1,2008-05-01T08:00:00Z,28.4073,-96.7122,0.0,7.4,230.0,8.1,'11111222,11111222,11111222' 
TCOON,ioos:station:TCOON:031:1,2008-05-01T09:00:00Z,28.4073,-96.7122,0.0,6.6,189.0,7.5,'11111222,11111222,11111222' 
TCOON,ioos:station:TCOON:031:1,2008-05-01T10:00:00Z,28.4073,-96.7122,0.0,6.1,172.0,8.0,'11111222,11111222,11111222' 
TCOON,ioos:station:TCOON:031:1,2008-05-01T11:00:00Z,28.4073,-96.7122,0.0,6.2,156.0,6.8,'11111222,11111222,11111222' 
TCOON,ioos:station:TCOON:031:1,2008-05-01T12:00:00Z,28.4073,-96.7122,0.0,6.3,155.0,7.3,'11111222,11111222,11111222' 
TCOON,ioos:station:TCOON:031:1,2008-05-01T13:00:00Z,28.4073,-96.7122,0.0,5.5,139.0,7.3,'11111222,11111222,11111222' 
TCOON,ioos:station:TCOON:031:1,2008-05-01T14:00:00Z,28.4073,-96.7122,0.0,6.4,142.0,7.4,'11111222,11111222,11111222' 
TCOON,ioos:station:TCOON:031:1,2008-05-01T15:00:00Z,28.4073,-96.7122,0.0,7.1,164.0,8.7,'11111222,11111222,11111222' 
TCOON,ioos:station:TCOON:031:1,2008-05-01T16:00:00Z,28.4073,-96.7122,0.0,7.1,171.0,9.7,'11111222,11111222,11111222' 
TCOON,ioos:station:TCOON:031:1,2008-05-01T17:00:00Z,28.4073,-96.7122,0.0,7.0,156.0,9.1,'11111222,11111222,11111222' 
TCOON,ioos:station:TCOON:031:1,2008-05-01T18:00:00Z,28.4073,-96.7122,0.0,8.5,241.0,11.4,'11111222,11111222,11111222' 
TCOON,ioos:station:TCOON:031:1,2008-05-01T19:00:00Z,28.4073,-96.7122,0.0,7.6,170.0,11.0,'11111222,11111222,11111222' 
TCOON,ioos:station:TCOON:031:1,2008-05-01T20:00:00Z,28.4073,-96.7122,0.0,7.8,201.0,11.4,'11111222,11111222,11111222' 
TCOON,ioos:station:TCOON:031:1,2008-05-01T21:00:00Z,28.4073,-96.7122,0.0,6.6,171.0,10.6,'11111222,11111222,11111222' 
TCOON,ioos:station:TCOON:031:1,2008-05-01T22:00:00Z,28.4073,-96.7122,0.0,7.9,193.0,10.2,'11111222,11111222,11111222' 
TCOON,ioos:station:TCOON:031:1,2008-05-01T23:00:00Z,28.4073,-96.7122,0.0,8.1,175.0,10.5,'11111222,11111222,11111222' 
TCOON,ioos:station:TCOON:031:1,2008-05-02T00:00:00Z,28.4073,-96.7122,0.0,5.9,74.0,8.3,'11111222,11111222,11111222' 
TCOON,ioos:station:TCOON:031:1,2008-05-02T01:00:00Z,28.4073,-96.7122,0.0,4.7,88.0,6.0,'11111222,11111222,11111222' 
TCOON,ioos:station:TCOON:031:1,2008-05-02T02:00:00Z,28.4073,-96.7122,0.0,5.2,70.0,6.1,'11111222,11111222,11111222' 
TCOON,ioos:station:TCOON:031:1,2008-05-02T03:00:00Z,28.4073,-96.7122,0.0,4.6,83.0,6.0,'11111222,11111222,11111222' 
TCOON,ioos:station:TCOON:031:1,2008-05-02T04:00:00Z,28.4073,-96.7122,0.0,5.4,72.0,7.3,'11111222,11111222,11111222' 
TCOON,ioos:station:TCOON:031:1,2008-05-02T05:00:00Z,28.4073,-96.7122,0.0,6.0,73.0,7.3,'11111222,11111222,11111222' 
TCOON,ioos:station:TCOON:031:1,2008-05-02T06:00:00Z,28.4073,-96.7122,0.0,5.1,74.0,7.2,'11111222,11111222,11111222' 
TCOON,ioos:station:TCOON:031:1,2008-05-02T07:00:00Z,28.4073,-96.7122,0.0,5.6,73.0,9.0,'11111222,11111222,11111222' 
TCOON,ioos:station:TCOON:031:1,2008-05-02T08:00:00Z,28.4073,-96.7122,0.0,6.3,65.0,8.1,'11111222,11111222,11111222' 
TCOON,ioos:station:TCOON:031:1,2008-05-02T09:00:00Z,28.4073,-96.7122,0.0,6.4,63.0,7.0,'11111222,11111222,11111222' 
TCOON,ioos:station:TCOON:031:1,2008-05-02T10:00:00Z,28.4073,-96.7122,0.0,6.3,64.0,7.3,'11111222,11111222,11111222' 
TCOON,ioos:station:TCOON:031:1,2008-05-02T11:00:00Z,28.4073,-96.7122,0.0,7.1,61.0,9.1,'11111222,11111222,11111222' 
TCOON,ioos:station:TCOON:031:1,2008-05-02T12:00:00Z,28.4073,-96.7122,0.0,7.0,51.0,8.3,'11111222,11111222,11111222' 
TCOON,ioos:station:TCOON:031:1,2008-05-02T13:00:00Z,28.4073,-96.7122,0.0,5.4,124.0,7.6,'11111222,11111222,11111222' 
TCOON,ioos:station:TCOON:031:1,2008-05-02T14:00:00Z,28.4073,-96.7122,0.0,6.7,68.0,8.6,'11111222,11111222,11111222' 
TCOON,ioos:station:TCOON:031:1,2008-05-02T15:00:00Z,28.4073,-96.7122,0.0,6.4,65.0,8.0,'11111222,11111222,11111222' 
TCOON,ioos:station:TCOON:031:1,2008-05-02T16:00:00Z,28.4073,-96.7122,0.0,6.7,108.0,7.1,'11111222,11111222,11111222' 
TCOON,ioos:station:TCOON:031:1,2008-05-02T17:00:00Z,28.4073,-96.7122,0.0,3.2,163.0,4.6,'11111222,11111222,11111222' 
TCOON,ioos:station:TCOON:031:1,2008-05-02T18:00:00Z,28.4073,-96.7122,0.0,3.6,147.0,4.3,'11111222,11111222,11111222' 
TCOON,ioos:station:TCOON:031:1,2008-05-02T19:00:00Z,28.4073,-96.7122,0.0,4.5,165.0,4.8,'11111222,11111222,11111222' 
TCOON,ioos:station:TCOON:031:1,2008-05-02T20:00:00Z,28.4073,-96.7122,0.0,4.5,178.0,5.0,'11111222,11111222,11111222' 
TCOON,ioos:station:TCOON:031:1,2008-05-02T21:00:00Z,28.4073,-96.7122,0.0,4.3,170.0,5.6,'11111222,11111222,11111222' 
TCOON,ioos:station:TCOON:031:1,2008-05-02T22:00:00Z,28.4073,-96.7122,0.0,3.4,111.0,3.9,'11111222,11111222,11111222' 
TCOON,ioos:station:TCOON:031:1,2008-05-02T23:00:00Z,28.4073,-96.7122,0.0,3.1,165.0,4.1,'11111222,11111222,11111222' 
TCOON,ioos:station:TCOON:031:1,2008-05-03T00:00:00Z,28.4073,-96.7122,0.0,3.6,127.0,4.0,'11111222,11111222,11111222' 
TCOON,ioos:station:TCOON:031:1,2008-05-03T01:00:00Z,28.4073,-96.7122,0.0,2.2,115.0,3.2,'11111222,11111222,11111222' 
TCOON,ioos:station:TCOON:031:1,2008-05-03T02:00:00Z,28.4073,-96.7122,0.0,0.4,115.0,2.0,'11111222,11111222,11111222' 
TCOON,ioos:station:TCOON:031:1,2008-05-03T03:00:00Z,28.4073,-96.7122,0.0,1.9,111.0,2.9,'11111222,11111222,11111222' 
TCOON,ioos:station:TCOON:031:1,2008-05-03T04:00:00Z,28.4073,-96.7122,0.0,1.9,111.0,2.5,'11111222,11111222,11111222' 
TCOON,ioos:station:TCOON:031:1,2008-05-03T05:00:00Z,28.4073,-96.7122,0.0,2.7,139.0,3.4,'11111222,11111222,11111222' 
TCOON,ioos:station:TCOON:031:1,2008-05-03T06:00:00Z,28.4073,-96.7122,0.0,3.1,135.0,3.8,'11111222,11111222,11111222' 
TCOON,ioos:station:TCOON:031:1,2008-05-03T07:00:00Z,28.4073,-96.7122,0.0,1.6,126.0,2.5,'11111222,11111222,11111222' 
TCOON,ioos:station:TCOON:031:1,2008-05-03T08:00:00Z,28.4073,-96.7122,0.0,2.3,164.0,3.1,'11111222,11111222,11111222' 
TCOON,ioos:station:TCOON:031:1,2008-05-03T09:00:00Z,28.4073,-96.7122,0.0,3.0,155.0,3.3,'11111222,11111222,11111222' 
TCOON,ioos:station:TCOON:031:1,2008-05-03T10:00:00Z,28.4073,-96.7122,0.0,0.0,112.0,99.0,'11111222,11111222,11144222' 
TCOON,ioos:station:TCOON:031:1,2008-05-03T11:00:00Z,28.4073,-96.7122,0.0,0.0,6.0,99.0,'11111222,11111222,11144222' 
TCOON,ioos:station:TCOON:031:1,2008-05-03T12:00:00Z,28.4073,-96.7122,0.0,0.8,4.0,1.3,'11111222,11111222,11111222' 
TCOON,ioos:station:TCOON:031:1,2008-05-03T13:00:00Z,28.4073,-96.7122,0.0,2.1,9.0,2.9,'11111222,11111222,11111222' 
TCOON,ioos:station:TCOON:031:1,2008-05-03T14:00:00Z,28.4073,-96.7122,0.0,2.4,19.0,3.6,'11111222,11111222,11111222' 
TCOON,ioos:station:TCOON:031:1,2008-05-03T15:00:00Z,28.4073,-96.7122,0.0,2.5,2.0,4.0,'11111222,11111222,11111222' 
TCOON,ioos:station:TCOON:031:1,2008-05-03T16:00:00Z,28.4073,-96.7122,0.0,4.0,302.0,8.1,'11111222,11111222,11111222' 
TCOON,ioos:station:TCOON:031:1,2008-05-03T17:00:00Z,28.4073,-96.7122,0.0,5.0,288.0,8.5,'11111222,11111222,11111222' 
TCOON,ioos:station:TCOON:031:1,2008-05-03T18:00:00Z,28.4073,-96.7122,0.0,4.7,288.0,7.8,'11111222,11111222,11111222' 
TCOON,ioos:station:TCOON:031:1,2008-05-03T19:00:00Z,28.4073,-96.7122,0.0,5.0,300.0,8.0,'11111222,11111222,11111222' 
TCOON,ioos:station:TCOON:031:1,2008-05-03T20:00:00Z,28.4073,-96.7122,0.0,4.8,308.0,7.4,'11111222,11111222,11111222' 
TCOON,ioos:station:TCOON:031:1,2008-05-03T21:00:00Z,28.4073,-96.7122,0.0,4.7,324.0,6.5,'11111222,11111222,11111222' 
TCOON,ioos:station:TCOON:031:1,2008-05-03T22:00:00Z,28.4073,-96.7122,0.0,3.9,326.0,6.2,'11111222,11111222,11111222' 
TCOON,ioos:station:TCOON:031:1,2008-05-03T23:00:00Z,28.4073,-96.7122,0.0,3.8,324.0,5.3,'11111222,11111222,11111222' 
TCOON,ioos:station:TCOON:031:1,2008-05-04T00:00:00Z,28.4073,-96.7122,0.0,4.4,331.0,5.5,'11111222,11111222,11111222' 
TCOON,ioos:station:TCOON:031:1,2008-05-04T01:00:00Z,28.4073,-96.7122,0.0,1.6,16.0,2.8,'11111222,11111222,11111222' 
TCOON,ioos:station:TCOON:031:1,2008-05-04T02:00:00Z,28.4073,-96.7122,0.0,1.0,13.0,2.1,'11111222,11111222,11111222' 
TCOON,ioos:station:TCOON:031:1,2008-05-04T03:00:00Z,28.4073,-96.7122,0.0,0.5,14.0,1.4,'11111222,11111222,11111222' 
TCOON,ioos:station:TCOON:031:1,2008-05-04T04:00:00Z,28.4073,-96.7122,0.0,0.3,27.0,1.6,'11111222,11111222,11111222' 
TCOON,ioos:station:TCOON:031:1,2008-05-04T05:00:00Z,28.4073,-96.7122,0.0,2.4,32.0,3.2,'11111222,11111222,11111222' 
TCOON,ioos:station:TCOON:031:1,2008-05-04T06:00:00Z,28.4073,-96.7122,0.0,1.8,18.0,3.1,'11111222,11111222,11111222' 
TCOON,ioos:station:TCOON:031:1,2008-05-04T07:00:00Z,28.4073,-96.7122,0.0,1.9,28.0,3.0,'11111222,11111222,11111222' 
TCOON,ioos:station:TCOON:031:1,2008-05-04T08:00:00Z,28.4073,-96.7122,0.0,2.5,27.0,3.9,'11111222,11111222,11111222' 
TCOON,ioos:station:TCOON:031:1,2008-05-04T09:00:00Z,28.4073,-96.7122,0.0,3.2,25.0,3.8,'11111222,11111222,11111222' 
TCOON,ioos:station:TCOON:031:1,2008-05-04T10:00:00Z,28.4073,-96.7122,0.0,2.9,26.0,3.9,'11111222,11111222,11111222' 
TCOON,ioos:station:TCOON:031:1,2008-05-04T11:00:00Z,28.4073,-96.7122,0.0,2.5,32.0,3.7,'11111222,11111222,11111222' 
TCOON,ioos:station:TCOON:031:1,2008-05-04T12:00:00Z,28.4073,-96.7122,0.0,2.7,42.0,3.5,'11111222,11111222,11111222' 
TCOON,ioos:station:TCOON:031:1,2008-05-04T13:00:00Z,28.4073,-96.7122,0.0,2.8,32.0,5.1,'11111222,11111222,11111222' 
TCOON,ioos:station:TCOON:031:1,2008-05-04T14:00:00Z,28.4073,-96.7122,0.0,2.4,21.0,4.6,'11111222,11111222,11111222' 
TCOON,ioos:station:TCOON:031:1,2008-05-04T15:00:00Z,28.4073,-96.7122,0.0,3.2,49.0,4.7,'11111222,11111222,11111222' 
TCOON,ioos:station:TCOON:031:1,2008-05-04T16:00:00Z,28.4073,-96.7122,0.0,3.4,62.0,4.7,'11111222,11111222,11111222' 
TCOON,ioos:station:TCOON:031:1,2008-05-04T17:00:00Z,28.4073,-96.7122,0.0,5.2,55.0,7.2,'11111222,11111222,11111222' 
TCOON,ioos:station:TCOON:031:1,2008-05-04T18:00:00Z,28.4073,-96.7122,0.0,4.2,64.0,6.7,'11111222,11111222,11111222' 
TCOON,ioos:station:TCOON:031:1,2008-05-04T19:00:00Z,28.4073,-96.7122,0.0,4.4,62.0,5.8,'11111222,11111222,11111222' 
TCOON,ioos:station:TCOON:031:1,2008-05-04T20:00:00Z,28.4073,-96.7122,0.0,3.5,62.0,5.8,'11111222,11111222,11111222' 
TCOON,ioos:station:TCOON:031:1,2008-05-04T21:00:00Z,28.4073,-96.7122,0.0,4.7,67.0,7.4,'11111222,11111222,11111222' 
TCOON,ioos:station:TCOON:031:1,2008-05-04T22:00:00Z,28.4073,-96.7122,0.0,3.9,57.0,6.5,'11111222,11111222,11111222' 
TCOON,ioos:station:TCOON:031:1,2008-05-04T23:00:00Z,28.4073,-96.7122,0.0,4.4,59.0,7.3,'11111222,11111222,11111222' 
TCOON,ioos:station:TCOON:031:1,2008-05-05T00:00:00Z,28.4073,-96.7122,0.0,4.6,52.0,7.1,'11111222,11111222,11111222' 
TCOON,ioos:station:TCOON:031:1,2008-05-05T01:00:00Z,28.4073,-96.7122,0.0,4.2,48.0,6.6,'11111222,11111222,11111222' 
TCOON,ioos:station:TCOON:031:1,2008-05-05T02:00:00Z,28.4073,-96.7122,0.0,3.0,53.0,4.6,'11111222,11111222,11111222' 
TCOON,ioos:station:TCOON:031:1,2008-05-05T03:00:00Z,28.4073,-96.7122,0.0,3.6,49.0,4.4,'11111222,11111222,11111222' 
TCOON,ioos:station:TCOON:031:1,2008-05-05T04:00:00Z,28.4073,-96.7122,0.0,2.8,71.0,4.4,'11111222,11111222,11111222' 
TCOON,ioos:station:TCOON:031:1,2008-05-05T05:00:00Z,28.4073,-96.7122,0.0,3.0,61.0,4.7,'11111222,11111222,11111222' 
TCOON,ioos:station:TCOON:031:1,2008-05-05T06:00:00Z,28.4073,-96.7122,0.0,2.7,72.0,4.5,'11111222,11111222,11111222' 
TCOON,ioos:station:TCOON:031:1,2008-05-05T07:00:00Z,28.4073,-96.7122,0.0,2.6,68.0,3.9,'11111222,11111222,11111222' 
TCOON,ioos:station:TCOON:031:1,2008-05-05T08:00:00Z,28.4073,-96.7122,0.0,3.2,67.0,4.8,'11111222,11111222,11111222' 
TCOON,ioos:station:TCOON:031:1,2008-05-05T09:00:00Z,28.4073,-96.7122,0.0,3.6,77.0,4.3,'11111222,11111222,11111222' 
TCOON,ioos:station:TCOON:031:1,2008-05-05T10:00:00Z,28.4073,-96.7122,0.0,4.1,57.0,5.1,'11111222,11111222,11111222' 
TCOON,ioos:station:TCOON:031:1,2008-05-05T11:00:00Z,28.4073,-96.7122,0.0,3.2,106.0,4.3,'11111222,11111222,11111222' 
TCOON,ioos:station:TCOON:031:1,2008-05-05T12:00:00Z,28.4073,-96.7122,0.0,2.2,103.0,2.9,'11111222,11111222,11111222' 
TCOON,ioos:station:TCOON:031:1,2008-05-05T13:00:00Z,28.4073,-96.7122,0.0,0.3,85.0,1.1,'11111222,11111222,11111222' 
TCOON,ioos:station:TCOON:031:1,2008-05-05T14:00:00Z,28.4073,-96.7122,0.0,2.8,126.0,3.1,'11111222,11111222,11111222' 
TCOON,ioos:station:TCOON:031:1,2008-05-05T15:00:00Z,28.4073,-96.7122,0.0,3.2,104.0,4.0,'11111222,11111222,11111222' 
TCOON,ioos:station:TCOON:031:1,2008-05-05T16:00:00Z,28.4073,-96.7122,0.0,4.3,133.0,5.0,'11111222,11111222,11111222' 
TCOON,ioos:station:TCOON:031:1,2008-05-05T17:00:00Z,28.4073,-96.7122,0.0,5.4,66.0,6.8,'11111222,11111222,11111222' 
TCOON,ioos:station:TCOON:031:1,2008-05-05T18:00:00Z,28.4073,-96.7122,0.0,1.1,70.0,3.2,'11111222,11111222,11111222' 
TCOON,ioos:station:TCOON:031:1,2008-05-05T19:00:00Z,28.4073,-96.7122,0.0,2.4,87.0,3.6,'11111222,11111222,11111222' 
TCOON,ioos:station:TCOON:031:1,2008-05-05T20:00:00Z,28.4073,-96.7122,0.0,3.3,68.0,4.3,'11111222,11111222,11111222' 
TCOON,ioos:station:TCOON:031:1,2008-05-05T21:00:00Z,28.4073,-96.7122,0.0,3.8,60.0,6.2,'11111222,11111222,11111222' 
TCOON,ioos:station:TCOON:031:1,2008-05-05T22:00:00Z,28.4073,-96.7122,0.0,4.4,53.0,6.1,'11111222,11111222,11111222' 
TCOON,ioos:station:TCOON:031:1,2008-05-05T23:00:00Z,28.4073,-96.7122,0.0,4.4,62.0,6.5,'11111222,11111222,11111222' 
TCOON,ioos:station:TCOON:031:1,2008-05-06T00:00:00Z,28.4073,-96.7122,0.0,4.2,60.0,7.7,'11111222,11111222,11111222' 
TCOON,ioos:station:TCOON:031:1,2008-05-06T01:00:00Z,28.4073,-96.7122,0.0,4.1,59.0,6.0,'11111222,11111222,11111222' 
TCOON,ioos:station:TCOON:031:1,2008-05-06T02:00:00Z,28.4073,-96.7122,0.0,4.5,51.0,6.5,'11111222,11111222,11111222' 
TCOON,ioos:station:TCOON:031:1,2008-05-06T03:00:00Z,28.4073,-96.7122,0.0,4.8,55.0,5.9,'11111222,11111222,11111222' 
TCOON,ioos:station:TCOON:031:1,2008-05-06T04:00:00Z,28.4073,-96.7122,0.0,3.1,73.0,4.9,'11111222,11111222,11111222' 
TCOON,ioos:station:TCOON:031:1,2008-05-06T05:00:00Z,28.4073,-96.7122,0.0,3.1,73.0,4.3,'11111222,11111222,11111222' 
TCOON,ioos:station:TCOON:031:1,2008-05-06T06:00:00Z,28.4073,-96.7122,0.0,3.0,81.0,3.9,'11111222,11111222,11111222' 
TCOON,ioos:station:TCOON:031:1,2008-05-06T07:00:00Z,28.4073,-96.7122,0.0,3.0,97.0,3.8,'11111222,11111222,11111222' 
TCOON,ioos:station:TCOON:031:1,2008-05-06T08:00:00Z,28.4073,-96.7122,0.0,3.4,72.0,4.1,'11111222,11111222,11111222' 
TCOON,ioos:station:TCOON:031:1,2008-05-06T09:00:00Z,28.4073,-96.7122,0.0,4.6,72.0,5.3,'11111222,11111222,11111222' 
TCOON,ioos:station:TCOON:031:1,2008-05-06T10:00:00Z,28.4073,-96.7122,0.0,4.5,145.0,5.8,'11111222,11111222,11111222' 
TCOON,ioos:station:TCOON:031:1,2008-05-06T11:00:00Z,28.4073,-96.7122,0.0,3.7,93.0,4.7,'11111222,11111222,11111222' 
TCOON,ioos:station:TCOON:031:1,2008-05-06T12:00:00Z,28.4073,-96.7122,0.0,1.2,122.0,2.8,'11111222,11111222,11111222' 
TCOON,ioos:station:TCOON:031:1,2008-05-06T13:00:00Z,28.4073,-96.7122,0.0,1.5,107.0,1.9,'11111222,11111222,11111222' 
TCOON,ioos:station:TCOON:031:1,2008-05-06T14:00:00Z,28.4073,-96.7122,0.0,2.7,112.0,3.5,'11111222,11111222,11111222' 
TCOON,ioos:station:TCOON:031:1,2008-05-06T15:00:00Z,28.4073,-96.7122,0.0,3.5,78.0,4.2,'11111222,11111222,11111222' 
TCOON,ioos:station:TCOON:031:1,2008-05-06T16:00:00Z,28.4073,-96.7122,0.0,4.4,112.0,4.9,'11111222,11111222,11111222' 
TCOON,ioos:station:TCOON:031:1,2008-05-06T17:00:00Z,28.4073,-96.7122,0.0,2.2,129.0,2.6,'11111222,11111222,11111222' 
TCOON,ioos:station:TCOON:031:1,2008-05-06T18:00:00Z,28.4073,-96.7122,0.0,5.5,167.0,6.5,'11111222,11111222,11111222' 
TCOON,ioos:station:TCOON:031:1,2008-05-06T19:00:00Z,28.4073,-96.7122,0.0,8.5,78.0,11.2,'11111222,11111222,11111222' 
TCOON,ioos:station:TCOON:031:1,2008-05-06T20:00:00Z,28.4073,-96.7122,0.0,7.6,164.0,12.1,'11111222,11111222,11111222' 
TCOON,ioos:station:TCOON:031:1,2008-05-06T21:00:00Z,28.4073,-96.7122,0.0,6.4,142.0,7.8,'11111222,11111222,11111222' 
TCOON,ioos:station:TCOON:031:1,2008-05-06T22:00:00Z,28.4073,-96.7122,0.0,6.2,76.0,8.4,'11111222,11111222,11111222' 
TCOON,ioos:station:TCOON:031:1,2008-05-06T23:00:00Z,28.4073,-96.7122,0.0,7.7,21.0,8.9,'11111222,11111222,11111222' 
TCOON,ioos:station:TCOON:031:1,2008-05-07T00:00:00Z,28.4073,-96.7122,0.0,6.6,82.0,8.1,'11111222,11111222,11111222' 
TCOON,ioos:station:TCOON:031:1,2008-05-07T01:00:00Z,28.4073,-96.7122,0.0,5.8,86.0,9.0,'11111222,11111222,11111222' 
TCOON,ioos:station:TCOON:031:1,2008-05-07T02:00:00Z,28.4073,-96.7122,0.0,5.9,113.0,9.3,'11111222,11111222,11111222' 
TCOON,ioos:station:TCOON:031:1,2008-05-07T03:00:00Z,28.4073,-96.7122,0.0,6.5,123.0,7.7,'11111222,11111222,11111222' 
TCOON,ioos:station:TCOON:031:1,2008-05-07T04:00:00Z,28.4073,-96.7122,0.0,7.4,68.0,8.8,'11111222,11111222,11111222' 
TCOON,ioos:station:TCOON:031:1,2008-05-07T05:00:00Z,28.4073,-96.7122,0.0,7.7,43.0,9.7,'11111222,11111222,11111222' 
TCOON,ioos:station:TCOON:031:1,2008-05-07T06:00:00Z,28.4073,-96.7122,0.0,6.8,116.0,9.6,'11111222,11111222,11111222' 
TCOON,ioos:station:TCOON:031:1,2008-05-07T07:00:00Z,28.4073,-96.7122,0.0,7.7,72.0,8.9,'11111222,11111222,11111222' 
TCOON,ioos:station:TCOON:031:1,2008-05-07T08:00:00Z,28.4073,-96.7122,0.0,7.3,77.0,8.9,'11111222,11111222,11111222' 
TCOON,ioos:station:TCOON:031:1,2008-05-07T09:00:00Z,28.4073,-96.7122,0.0,6.2,163.0,7.5,'11111222,11111222,11111222' 
TCOON,ioos:station:TCOON:031:1,2008-05-07T10:00:00Z,28.4073,-96.7122,0.0,5.3,136.0,7.1,'11111222,11111222,11111222' 
TCOON,ioos:station:TCOON:031:1,2008-05-07T11:00:00Z,28.4073,-96.7122,0.0,5.8,141.0,6.6,'11111222,11111222,11111222' 
TCOON,ioos:station:TCOON:031:1,2008-05-07T12:00:00Z,28.4073,-96.7122,0.0,5.0,115.0,6.5,'11111222,11111222,11111222' 
TCOON,ioos:station:TCOON:031:1,2008-05-07T13:00:00Z,28.4073,-96.7122,0.0,6.1,155.0,8.3,'11111222,11111222,11111222' 
TCOON,ioos:station:TCOON:031:1,2008-05-07T14:00:00Z,28.4073,-96.7122,0.0,7.9,51.0,10.6,'11111222,11111222,11111222' 
TCOON,ioos:station:TCOON:031:1,2008-05-07T15:00:00Z,28.4073,-96.7122,0.0,8.0,114.0,11.7,'11111222,11111222,11111222' 
TCOON,ioos:station:TCOON:031:1,2008-05-07T16:00:00Z,28.4073,-96.7122,0.0,9.6,75.0,11.9,'11111222,11111222,11111222' 
TCOON,ioos:station:TCOON:031:1,2008-05-07T17:00:00Z,28.4073,-96.7122,0.0,8.9,81.0,11.5,'11111222,11111222,11111222' 
TCOON,ioos:station:TCOON:031:1,2008-05-07T18:00:00Z,28.4073,-96.7122,0.0,8.9,116.0,11.9,'11111222,11111222,11111222' 
TCOON,ioos:station:TCOON:031:1,2008-05-07T19:00:00Z,28.4073,-96.7122,0.0,6.7,146.0,9.6,'11111222,11111222,11111222' 
TCOON,ioos:station:TCOON:031:1,2008-05-07T20:00:00Z,28.4073,-96.7122,0.0,8.8,149.0,11.9,'11111222,11111222,11111222' 
TCOON,ioos:station:TCOON:031:1,2008-05-07T21:00:00Z,28.4073,-96.7122,0.0,8.3,144.0,11.3,'11111222,11111222,11111222' 
TCOON,ioos:station:TCOON:031:1,2008-05-07T22:00:00Z,28.4073,-96.7122,0.0,9.3,161.0,11.3,'11111222,11111222,11111222' 
TCOON,ioos:station:TCOON:031:1,2008-05-07T23:00:00Z,28.4073,-96.7122,0.0,8.8,182.0,12.5,'11111222,11111222,11111222' 
TCOON,ioos:station:TCOON:031:1,2008-05-08T00:00:00Z,28.4073,-96.7122,0.0,6.3,183.0,8.8,'11111222,11111222,11111222' 
TCOON,ioos:station:TCOON:031:1,2008-05-08T01:00:00Z,28.4073,-96.7122,0.0,6.1,208.0,8.4,'11111222,11111222,11111222' 
TCOON,ioos:station:TCOON:031:1,2008-05-08T02:00:00Z,28.4073,-96.7122,0.0,5.5,211.0,6.4,'11111222,11111222,11111222' 
TCOON,ioos:station:TCOON:031:1,2008-05-08T03:00:00Z,28.4073,-96.7122,0.0,6.5,203.0,7.8,'11111222,11111222,11111222' 
TCOON,ioos:station:TCOON:031:1,2008-05-08T04:00:00Z,28.4073,-96.7122,0.0,6.0,209.0,7.5,'11111222,11111222,11111222' 
TCOON,ioos:station:TCOON:031:1,2008-05-08T05:00:00Z,28.4073,-96.7122,0.0,6.7,207.0,8.6,'11111222,11111222,11111222' 
TCOON,ioos:station:TCOON:031:1,2008-05-08T06:00:00Z,28.4073,-96.7122,0.0,8.7,190.0,10.0,'11111222,11111222,11111222' 
TCOON,ioos:station:TCOON:031:1,2008-05-08T07:00:00Z,28.4073,-96.7122,0.0,7.2,201.0,9.0,'11111222,11111222,11111222' 
TCOON,ioos:station:TCOON:031:1,2008-05-08T08:00:00Z,28.4073,-96.7122,0.0,9.4,107.0,10.3,'11111222,11111222,11111222' 
TCOON,ioos:station:TCOON:031:1,2008-05-08T09:00:00Z,28.4073,-96.7122,0.0,6.3,210.0,8.8,'11111222,11111222,11111222' 
TCOON,ioos:station:TCOON:031:1,2008-05-08T10:00:00Z,28.4073,-96.7122,0.0,6.2,214.0,8.0,'11111222,11111222,11111222' 
TCOON,ioos:station:TCOON:031:1,2008-05-08T11:00:00Z,28.4073,-96.7122,0.0,5.5,219.0,6.7,'11111222,11111222,11111222' 
TCOON,ioos:station:TCOON:031:1,2008-05-08T12:00:00Z,28.4073,-96.7122,0.0,1.5,305.0,3.1,'11111222,11111222,11111222' 
TCOON,ioos:station:TCOON:031:1,2008-05-08T13:00:00Z,28.4073,-96.7122,0.0,0.1,339.0,0.3,'11111222,11111222,11111222' 
TCOON,ioos:station:TCOON:031:1,2008-05-08T14:00:00Z,28.4073,-96.7122,0.0,2.2,318.0,2.7,'11111222,11111222,11111222' 
TCOON,ioos:station:TCOON:031:1,2008-05-08T15:00:00Z,28.4073,-96.7122,0.0,2.3,245.0,2.8,'11111222,11111222,11111222' 
TCOON,ioos:station:TCOON:031:1,2008-05-08T16:00:00Z,28.4073,-96.7122,0.0,0.9,176.0,1.5,'11111222,11111222,11111222' 
TCOON,ioos:station:TCOON:031:1,2008-05-08T17:00:00Z,28.4073,-96.7122,0.0,0.0,158.0,1.1,'11111222,11111222,11111222' 
TCOON,ioos:station:TCOON:031:1,2008-05-08T18:00:00Z,28.4073,-96.7122,0.0,0.1,179.0,1.9,'11111222,11111222,11111222' 
TCOON,ioos:station:TCOON:031:1,2008-05-08T19:00:00Z,28.4073,-96.7122,0.0,3.4,88.0,4.2,'11111222,11111222,11111222' 
TCOON,ioos:station:TCOON:031:1,2008-05-08T20:00:00Z,28.4073,-96.7122,0.0,3.9,81.0,4.9,'11111222,11111222,11111222' 
TCOON,ioos:station:TCOON:031:1,2008-05-08T21:00:00Z,28.4073,-96.7122,0.0,4.3,73.0,5.5,'11111222,11111222,11111222' 
TCOON,ioos:station:TCOON:031:1,2008-05-08T22:00:00Z,28.4073,-96.7122,0.0,4.5,68.0,5.3,'11111222,11111222,11111222' 
TCOON,ioos:station:TCOON:031:1,2008-05-08T23:00:00Z,28.4073,-96.7122,0.0,4.3,57.0,5.5,'11111222,11111222,11111222' 
TCOON,ioos:station:TCOON:031:1,2008-05-09T00:00:00Z,28.4073,-96.7122,0.0,4.8,59.0,5.5,'11111222,11111222,11111222' 
TCOON,ioos:station:TCOON:031:1,2008-05-09T01:00:00Z,28.4073,-96.7122,0.0,4.4,69.0,5.2,'11111222,11111222,11111222' 
TCOON,ioos:station:TCOON:031:1,2008-05-09T02:00:00Z,28.4073,-96.7122,0.0,4.5,68.0,6.0,'11111222,11111222,11111222' 
TCOON,ioos:station:TCOON:031:1,2008-05-09T03:00:00Z,28.4073,-96.7122,0.0,4.2,86.0,4.8,'11111222,11111222,11111222' 
TCOON,ioos:station:TCOON:031:1,2008-05-09T04:00:00Z,28.4073,-96.7122,0.0,4.4,62.0,5.3,'11111222,11111222,11111222' 
TCOON,ioos:station:TCOON:031:1,2008-05-09T05:00:00Z,28.4073,-96.7122,0.0,4.1,55.0,5.0,'11111222,11111222,11111222' 
TCOON,ioos:station:TCOON:031:1,2008-05-09T06:00:00Z,28.4073,-96.7122,0.0,4.5,62.0,6.1,'11111222,11111222,11111222' 
TCOON,ioos:station:TCOON:031:1,2008-05-09T08:00:00Z,28.4073,-96.7122,0.0,5.2,69.0,6.1,'11111222,11111222,11111222' 
TCOON,ioos:station:TCOON:031:1,2008-05-09T09:00:00Z,28.4073,-96.7122,0.0,3.7,71.0,4.5,'11111222,11111222,11111222' 
TCOON,ioos:station:TCOON:031:1,2008-05-09T10:00:00Z,28.4073,-96.7122,0.0,2.7,123.0,3.4,'11111222,11111222,11111222' 
TCOON,ioos:station:TCOON:031:1,2008-05-09T11:00:00Z,28.4073,-96.7122,0.0,2.0,140.0,2.7,'11111222,11111222,11111222' 
TCOON,ioos:station:TCOON:031:1,2008-05-09T12:00:00Z,28.4073,-96.7122,0.0,3.6,57.0,4.9,'11111222,11111222,11111222' 
TCOON,ioos:station:TCOON:031:1,2008-05-09T13:00:00Z,28.4073,-96.7122,0.0,2.5,114.0,3.0,'11111222,11111222,11111222' 
TCOON,ioos:station:TCOON:031:1,2008-05-09T14:00:00Z,28.4073,-96.7122,0.0,3.8,40.0,4.1,'11111222,11111222,11111222' 
TCOON,ioos:station:TCOON:031:1,2008-05-09T15:00:00Z,28.4073,-96.7122,0.0,3.6,46.0,4.3,'11111222,11111222,11111222' 